GFSFLT1_con_mlcape_051.txt.gz
CAPE
146 114 15 1 7 8 1 12 11 30 82 6 4 20 0 39 245 399 491 585 539 466 215 114 29 0 0 0 0 0 0 0
223 129 99 26 40 49 66 79 77 103 100 14 0 0 18 72 242 398 416 423 366 285 165 65 4 0 0 0 0 0 0 0
230 201 181 133 112 94 104 90 112 274 208 70 2 0 1 12 143 346 407 342 282 230 120 0 2 0 0 0 0 0 0 0
390 145 140 171 176 183 210 219 329 348 364 225 36 1 1 29 129 335 372 438 334 148 105 11 0 0 0 0 0 0 0 0
511 510 297 141 133 200 216 227 238 270 316 316 129 3 0 3 72 235 386 278 89 7 9 1 0 0 0 0 0 0 0 0
516 574 560 525 360 286 336 257 207 222 359 353 348 121 4 54 187 334 478 270 76 20 0 0 0 0 0 0 0 0 0 0
412 570 616 649 599 546 389 321 264 260 384 491 514 369 160 20 279 456 457 364 186 6 0 0 0 0 0 0 0 0 0 0
394 470 670 855 915 858 774 507 270 293 401 528 608 623 529 317 199 563 366 242 89 0 0 0 0 0 0 0 0 0 0 0
456 519 550 862 1083 1178 1032 913 765 440 453 611 837 826 940 885 734 589 514 446 274 0 0 0 0 0 0 0 0 0 0 0
337 638 722 851 1212 1432 1456 1298 1180 896 552 360 86 383 1150 1115 971 874 801 518 1 0 0 0 0 0 0 0 0 0 0 0
208 511 701 905 1211 1616 1746 1761 1537 1242 951 819 790 997 1176 979 792 729 569 9 0 0 0 0 0 0 0 0 0 0 0 0
305 352 480 704 1012 1481 1879 1943 1805 1655 1460 1316 1144 874 849 617 460 426 153 0 1 0 0 0 0 0 0 0 0 0 0 0
591 637 611 680 937 1277 1568 1693 1677 1512 1419 1394 1202 864 652 464 335 186 4 2 0 0 0 0 0 0 0 0 0 0 0 0
575 981 991 957 1011 1134 1275 1330 1309 1327 1384 1363 1031 459 234 43 0 0 0 0 0 0 0 0 0 0 0 0 0 0 0 0
219 593 1052 1179 1212 1180 1213 1247 1254 1287 1237 1027 327 16 1 2 2 1 1 0 0 0 0 0 0 0 0 0 0 0 0 0
347 457 755 999 1223 1320 1376 1013 854 439 53 0 0 2 1 1 1 1 0 0 0 0 0 0 0 0 0 0 0 1 0 1
292 734 1088 1267 1309 1286 892 551 415 231 28 0 0 0 0 0 0 0 0 0 0 0 0 0 0 0 0 0 0 1 1 1
318 553 564 447 552 337 104 21 1 0 0 0 0 0 0 0 0 0 0 0 1 0 0 0 4 2 0 0 0 1 4 1
12 0 0 2 3 0 0 0 0 0 0 0 0 0 0 0 0 0 1 3 4 3 0 0 0 0 0 0 0 0 0 0

GFSFLT1_con_mlcape_054.txt.gz
CAPE
25 1 0 0 0 0 0 0 0 0 0 0 1 4 69 9 0 86 216 288 355 355 273 223 76 3 0 0 0 0 0 0
26 0 0 0 0 0 0 0 0 0 13 0 0 22 11 0 7 95 349 281 352 298 321 194 54 5 0 0 0 0 0 0
98 3 0 1 0 0 0 0 0 0 0 1 0 0 0 1 1 295 372 377 439 448 301 129 57 20 6 0 0 0 0 0
117 98 1 0 39 26 0 0 0 0 0 59 39 0 0 4 31 189 204 320 265 341 279 164 59 21 0 0 0 0 0 0
301 158 158 78 180 130 124 155 162 122 172 194 121 0 0 1 0 150 258 405 318 313 229 176 41 5 0 0 0 0 0 0
434 232 222 261 216 212 187 242 208 203 289 350 271 72 1 0 30 46 352 459 392 314 138 65 21 0 0 0 0 0 0 0
608 466 220 251 227 341 296 307 278 272 489 508 426 291 107 59 92 167 406 438 289 134 92 45 1 0 0 0 0 0 0 0
479 630 617 434 251 248 409 389 373 308 301 445 337 430 428 146 162 280 423 445 342 216 128 18 0 0 0 0 0 0 0 0
312 520 694 703 670 616 439 461 465 448 354 445 657 494 532 507 382 310 393 469 377 235 85 2 0 0 0 0 0 0 0 0
348 429 531 798 859 945 945 813 544 400 437 385 347 561 545 419 346 519 438 501 416 265 23 0 0 0 0 0 0 0 0 0
170 413 569 835 1050 1198 1235 1124 1009 774 428 404 283 265 279 285 0 727 845 399 51 0 0 0 0 0 0 0 0 0 0 0
196 289 469 795 1021 1421 1641 1506 1322 1245 736 417 350 78 100 272 704 787 718 264 10 0 0 0 0 0 0 0 0 0 0 0
412 398 428 536 1036 1499 1800 1848 1736 1485 1053 531 821 845 946 812 635 467 284 111 0 0 0 0 0 0 0 0 0 0 0 0
551 711 719 713 801 1134 1924 2005 1916 1590 1001 720 856 831 510 254 63 0 0 0 0 0 0 0 0 0 0 0 0 0 0 0
381 783 912 978 1056 1184 1391 1541 1595 1292 766 526 509 258 59 1 1 1 0 0 0 0 0 0 0 0 0 0 0 0 0 0
107 502 1000 1190 1219 1249 1362 1198 733 386 229 56 3 0 0 0 0 0 0 0 0 0 0 0 0 0 0 0 0 0 0 0
2 311 701 1050 1169 1239 1082 764 475 132 6 0 0 0 0 0 0 0 0 0 0 0 0 0 0 0 0 0 0 0 0 0
12 333 782 1115 1291 1107 805 528 281 22 0 0 0 0 0 0 0 0 0 0 0 0 0 0 1 0 0 0 0 0 0 0
245 678 851 757 556 331 127 35 0 0 0 0 0 0 0 0 0 0 0 0 0 0 0 0 0 0 0 0 0 0 0 0

GFSFLT1_con_mlcape_057.txt.gz
CAPE
0 0 0 0 0 0 0 0 0 0 0 0 0 0 12 14 0 4 47 97 126 119 58 160 72 4 0 0 0 0 0 0
0 0 0 0 0 0 0 0 0 0 0 0 0 0 0 0 0 0 28 89 68 194 180 148 55 3 0 0 0 0 0 0
0 0 0 0 0 0 0 0 0 0 0 0 0 0 0 0 0 0 0 58 145 241 193 131 62 0 0 0 0 0 0 0
0 0 0 0 0 0 0 0 0 0 0 0 0 0 0 0 0 0 76 198 191 181 193 145 58 2 0 0 0 0 0 0
0 0 0 0 0 0 0 0 0 0 0 0 0 0 0 0 0 0 0 159 168 232 235 168 86 43 2 0 0 0 0 0
9 0 0 0 0 0 0 0 0 0 0 0 0 0 0 0 0 0 0 78 125 214 190 216 110 30 0 0 0 0 0 0
98 18 0 0 0 0 0 0 0 0 0 0 2 55 0 0 0 0 11 151 178 186 181 145 75 29 5 0 0 0 0 0
165 93 70 20 1 50 9 6 21 24 19 23 44 79 130 13 0 0 1 83 194 218 191 90 43 5 0 1 0 0 0 0
236 189 153 128 85 75 58 24 43 55 51 93 123 125 197 120 22 16 67 98 135 188 102 86 31 9 0 0 0 0 0 0
265 263 168 123 186 103 128 67 12 73 64 126 221 232 145 216 204 132 148 153 174 165 87 48 0 0 0 0 0 0 0 0
95 394 316 177 130 124 46 112 144 103 155 134 139 275 195 185 322 319 118 92 74 101 33 0 0 0 0 0 0 0 0 0
81 111 237 410 354 170 121 106 179 249 206 208 208 222 331 256 261 247 187 90 35 0 2 0 0 0 0 0 0 0 0 0
129 200 218 176 433 483 526 410 246 251 206 142 112 82 100 18 49 133 112 252 67 1 0 0 0 0 0 0 0 0 0 0
188 219 401 383 604 641 801 828 694 564 365 195 227 267 20 37 21 164 100 0 0 0 0 0 0 0 0 0 0 0 0 0
150 222 321 497 586 1037 1221 1199 1112 520 388 387 354 159 38 0 0 0 0 0 0 0 0 0 0 0 0 0 0 0 0 0
156 307 449 671 829 934 620 667 664 557 503 357 84 2 1 1 0 1 1 1 1 1 0 0 0 0 0 0 0 0 0 0
83 334 658 828 981 823 484 186 39 9 94 6 0 2 2 1 0 0 0 0 0 0 0 0 0 0 0 0 0 0 0 0
0 307 766 899 998 765 606 209 1 0 0 0 0 0 0 0 0 0 0 0 0 0 0 0 0 0 0 0 0 0 0 0
13 205 676 871 795 654 300 19 0 0 0 0 0 0 0 0 0 0 0 0 0 0 0 0 0 0 0 0 0 0 0 0

GFSFLT1_con_mlcape_060.txt.gz
CAPE
0 0 0 1 1 1 0 0 0 0 0 0 0 0 0 0 6 14 68 106 138 108 70 71 73 29 0 0 0 0 0 0
0 0 0 0 1 0 0 0 0 0 0 0 0 0 0 0 3 0 6 10 42 118 90 64 71 37 0 0 0 0 0 0
0 0 0 1 0 0 0 0 0 0 0 0 0 0 0 0 5 2 0 21 77 45 20 83 50 27 0 0 0 0 0 0
0 0 0 0 1 0 0 0 0 0 0 0 0 0 0 0 0 0 0 0 0 17 17 54 57 24 7 0 0 0 0 0
0 0 0 0 0 0 0 0 0 0 0 0 0 0 0 0 0 0 0 0 0 0 5 62 71 7 0 0 0 0 0 0
0 0 0 0 0 0 0 0 0 0 0 0 0 0 0 0 0 0 0 0 0 15 70 64 27 18 4 0 0 0 0 0
0 0 0 0 0 0 0 0 0 0 0 0 0 0 0 0 0 0 0 0 0 0 49 85 48 31 23 9 0 0 0 0
0 0 0 0 0 0 0 0 0 0 0 0 0 0 0 0 0 0 0 0 0 0 4 48 31 25 21 6 0 0 0 0
62 0 0 0 0 0 0 0 0 0 0 0 0 0 0 0 0 0 0 0 6 30 27 63 45 5 1 11 0 0 0 0
139 79 1 0 0 0 0 0 0 0 0 0 0 0 0 11 84 0 0 0 2 29 32 57 28 4 14 0 0 0 0 0
123 131 101 29 0 0 0 0 0 0 0 0 0 0 7 33 82 59 35 21 72 88 79 69 42 30 1 0 0 0 0 0
54 122 131 100 77 15 0 10 10 0 0 6 18 43 69 93 80 70 20 0 5 15 15 5 3 0 0 0 0 0 0 0
0 84 171 152 135 115 85 23 29 45 5 13 15 27 59 112 147 91 58 1 2 0 14 1 0 0 0 0 0 0 0 0
1 5 39 179 224 172 122 99 33 44 22 22 8 38 41 71 124 136 109 0 0 0 0 0 0 0 0 0 0 0 0 0
3 57 120 162 255 265 282 143 53 43 98 77 108 106 127 117 36 63 42 0 0 0 0 0 0 0 0 0 0 0 0 0
25 59 72 169 272 503 435 429 371 229 216 227 234 171 42 0 0 0 0 0 0 0 0 1 1 0 0 0 0 0 0 0
33 75 103 292 252 243 467 369 508 482 342 193 8 0 0 0 1 1 1 1 2 1 1 1 1 1 0 0 0 0 0 0
12 86 160 355 282 202 377 279 133 157 44 2 2 2 2 2 1 1 1 2 2 1 1 0 0 0 0 0 0 0 0 0
0 95 185 346 251 168 102 37 0 1 2 3 2 1 1 2 1 1 2 0 0 0 0 0 0 0 0 0 0 0 0 0

GFSFLT1_con_mlcape_063.txt.gz
CAPE
0 1 0 1 1 1 1 2 1 0 0 1 8 7 10 30 52 43 46 31 20 9 19 17 0 0 0 0 0 0 0 0
0 1 0 0 0 1 0 1 0 0 0 0 10 15 9 7 27 60 98 106 124 119 110 63 73 77 45 2 0 0 0 0
0 0 1 0 0 1 1 0 0 0 0 0 0 0 0 1 6 21 21 52 70 110 88 70 48 47 14 0 0 0 0 0
0 0 0 1 0 1 1 0 0 0 0 0 0 0 0 0 0 2 4 14 23 31 20 45 14 15 30 7 0 0 0 0
0 0 0 0 0 0 1 0 0 0 0 0 0 0 0 0 0 0 0 12 5 0 2 26 14 0 6 2 0 0 0 0
0 0 0 0 0 0 0 0 0 0 0 0 0 0 0 0 0 0 0 0 0 0 0 0 0 0 11 9 0 0 0 0
0 0 0 0 0 0 0 0 0 0 0 0 0 0 0 0 0 0 0 0 0 0 0 0 0 1 17 21 0 0 0 0
10 0 0 0 0 0 0 0 0 0 0 0 0 0 0 0 0 0 0 0 0 0 0 0 0 1 43 23 0 0 0 0
16 3 0 0 0 0 0 0 0 0 0 0 0 0 0 0 0 0 0 0 0 0 0 0 0 0 0 0 0 0 1 0
7 2 0 0 0 0 0 0 0 0 0 0 0 0 0 0 0 0 0 0 0 0 0 0 0 0 0 0 42 22 0 0
13 4 0 0 0 0 0 0 0 0 0 0 0 0 0 0 0 0 0 0 0 0 0 0 0 0 0 19 35 0 0 0
22 32 8 0 0 0 0 0 0 0 0 0 0 0 0 0 0 0 1 8 1 0 2 7 14 4 6 0 0 0 0 0
3 24 50 26 0 0 0 0 0 0 0 0 0 0 0 0 0 9 34 9 11 46 0 8 0 0 0 0 0 0 0 0
0 1 56 79 39 8 0 0 0 0 0 0 0 0 3 26 3 57 40 20 18 6 0 0 0 0 0 0 0 0 0 0
0 0 5 50 68 69 59 23 0 0 0 0 0 1 25 7 11 47 41 33 20 0 0 0 0 0 0 0 0 0 1 1
0 1 0 4 50 104 79 51 35 14 21 29 39 31 46 32 41 25 2 0 1 1 0 0 0 0 0 0 1 0 0 0
0 0 13 24 90 138 122 136 80 38 68 70 55 48 22 26 0 0 0 0 0 1 1 1 1 1 1 0 0 0 0 0
0 0 4 79 160 159 124 146 155 120 96 87 97 12 0 0 0 0 0 1 2 1 1 1 1 1 0 0 0 0 0 0
0 0 1 56 150 147 110 151 199 188 144 30 0 0 1 1 1 1 2 3 2 1 2 1 1 0 0 0 0 0 0 0

GFSFLT1_con_mlcape_066.txt.gz
CAPE
0 0 1 0 0 2 1 1 1 1 1 0 0 0 0 3 24 43 23 13 1 0 0 0 0 0 0 0 0 0 0 0
0 1 1 1 0 0 0 0 2 2 0 1 0 0 0 4 34 36 27 17 15 5 0 0 1 1 8 3 0 0 0 0
0 1 2 1 0 0 0 1 0 0 0 0 0 0 0 5 11 28 31 36 30 41 14 45 81 90 52 20 4 0 0 0
0 0 0 2 0 0 0 0 0 0 0 0 0 0 0 7 23 21 38 74 84 89 105 68 73 81 114 54 2 7 3 0
0 0 0 0 0 0 0 0 0 0 0 0 0 0 5 0 0 0 18 28 35 44 64 73 69 62 61 28 1 0 0 0
0 0 0 0 0 0 0 0 0 0 0 0 0 0 0 0 0 0 0 0 2 1 17 5 0 19 43 29 14 0 0 0
0 0 0 0 0 0 1 1 0 0 0 0 0 0 0 0 0 0 0 0 0 0 0 0 1 0 0 1 0 0 0 0
0 0 0 0 0 0 0 0 0 0 0 0 0 0 0 0 0 0 0 0 0 0 0 0 0 0 0 0 0 0 0 0
0 0 0 0 0 0 0 0 0 0 0 0 0 0 0 0 0 0 0 0 0 0 0 0 0 0 0 0 0 0 0 0
0 0 0 0 0 0 0 0 0 0 0 0 0 0 0 0 0 0 0 0 0 0 0 0 0 0 0 0 1 0 0 3
0 0 0 0 0 0 0 0 0 0 0 0 0 0 0 0 0 0 0 0 0 0 0 0 0 0 0 0 3 3 4 0
0 0 0 0 0 0 0 0 0 0 0 0 0 0 0 0 0 0 0 0 0 0 0 0 0 0 0 0 0 0 0 0
0 0 0 0 0 0 0 0 0 0 0 0 0 0 0 0 0 0 0 0 0 0 0 0 0 3 1 0 0 0 0 0
0 0 1 3 0 0 0 0 0 0 0 0 0 0 0 0 0 0 0 0 0 0 0 0 2 0 0 0 0 0 0 0
0 0 0 5 9 1 0 0 0 0 0 0 0 0 0 0 0 0 0 0 3 1 1 2 1 0 0 0 0 0 0 1
0 0 0 0 8 12 6 1 0 0 0 0 0 0 0 0 0 0 0 0 3 3 0 0 0 0 0 0 0 1 1 1
0 0 0 0 8 11 20 8 0 0 0 0 0 0 0 0 0 0 2 0 2 0 0 0 0 0 1 0 1 1 1 1
0 0 0 0 0 2 5 26 11 13 21 6 0 0 0 1 1 1 0 0 0 0 0 1 0 2 3 1 1 1 1 1
0 0 0 0 0 0 1 15 32 43 45 54 42 19 14 0 0 0 0 0 1 2 2 3 3 2 1 1 0 0 0 0

GFSFLT1_con_mlcape_069.txt.gz
CAPE
0 0 0 0 0 0 1 0 1 0 1 1 0 8 26 12 7 14 19 9 1 0 0 0 0 1 0 0 0 0 0 0
0 1 1 0 1 1 2 0 1 0 0 3 0 0 0 16 4 17 21 12 1 0 0 0 0 0 0 4 2 0 0 0
0 0 0 1 2 3 2 1 1 1 1 0 0 0 0 0 0 0 1 22 10 0 0 0 0 0 6 4 8 16 4 0
0 0 1 0 1 2 2 2 1 1 1 0 1 0 0 0 0 0 0 21 21 17 1 7 7 7 13 30 23 21 84 2
0 0 0 0 0 0 3 2 1 3 0 0 0 0 0 0 0 0 0 15 30 47 44 53 64 103 123 63 52 84 89 84
0 0 0 0 0 0 3 3 2 0 1 0 0 1 0 0 0 0 0 1 27 57 72 58 57 50 72 82 81 45 54 68
0 0 0 0 0 0 3 0 0 0 0 0 0 0 0 0 0 0 0 2 12 21 34 43 55 45 43 74 64 57 26 10
0 0 0 0 0 0 0 1 0 1 1 0 0 0 0 0 0 0 0 0 0 1 19 26 21 3 6 10 9 12 15 16
0 0 0 0 0 0 0 0 0 2 1 0 0 0 0 0 0 0 0 0 0 0 0 0 1 0 4 0 3 6 14 12
0 0 0 0 0 0 0 0 0 1 1 0 0 0 0 0 0 0 0 0 0 0 0 0 0 1 1 0 3 0 10 19
0 0 0 0 0 0 0 0 0 0 0 0 0 0 0 0 0 0 0 0 0 0 0 0 0 0 0 0 0 0 1 6
0 0 0 0 0 0 0 0 0 0 0 0 0 0 0 0 0 0 0 0 0 0 0 0 0 0 0 0 0 0 2 4
0 0 0 0 0 0 0 0 0 0 0 0 0 0 0 0 0 0 0 0 0 0 0 0 0 0 0 0 0 0 0 1
0 0 0 0 0 0 0 0 0 0 0 0 0 0 0 0 0 0 0 0 0 0 0 0 0 0 0 0 1 0 0 0
0 0 0 0 0 0 0 0 0 0 0 0 0 0 0 0 0 0 0 0 0 0 0 0 0 0 0 0 0 0 1 0
0 0 0 0 0 0 0 0 0 0 0 0 0 0 0 0 0 0 0 0 0 0 0 0 0 0 0 0 0 0 0 0
0 0 0 0 0 0 0 0 0 0 0 0 0 0 0 0 0 0 0 0 0 0 1 0 0 0 0 0 0 0 1 2
0 0 0 0 0 0 0 8 1 0 0 0 0 0 0 0 0 0 0 0 0 0 1 0 0 0 0 0 0 0 2 2
0 0 0 0 0 0 0 3 2 1 3 6 2 0 0 0 1 2 2 3 1 0 0 0 0 1 2 1 3 1 2 2

GFSFLT1_con_mlcape_072.txt.gz
CAPE
0 0 0 0 7 8 2 3 4 3 3 4 5 13 18 42 41 13 2 25 16 7 0 19 21 3 1 0 0 0 0 0
21 0 0 0 2 6 4 1 0 3 3 2 2 2 13 20 24 43 39 40 18 0 0 26 62 38 48 50 32 12 1 0
34 0 0 0 1 6 7 1 1 2 2 3 3 4 19 18 16 6 12 39 10 25 4 32 68 102 136 112 77 51 95 10
47 0 0 0 0 4 6 3 3 3 11 14 5 0 1 1 2 4 4 16 31 15 0 0 4 78 98 112 89 128 169 54
83 22 0 0 0 1 3 0 5 3 2 1 3 4 1 3 1 1 8 7 28 27 0 0 1 36 85 135 130 177 188 114
91 45 6 0 0 0 2 2 9 3 3 2 0 5 0 0 0 0 0 8 29 23 3 1 0 14 34 70 89 153 209 97
84 77 19 0 0 0 1 1 2 5 5 4 2 1 1 2 1 2 2 1 7 12 17 9 8 30 70 47 76 122 121 103
38 75 47 3 0 0 0 0 0 4 8 8 2 3 4 3 0 0 0 1 1 0 5 3 9 20 16 32 53 40 112 71
16 58 62 32 0 0 0 0 0 0 3 5 6 9 13 4 0 0 0 0 0 0 0 0 1 16 6 18 57 81 77 126
6 41 74 49 7 0 0 0 0 0 0 3 2 2 7 11 8 2 0 0 0 0 2 10 14 26 39 50 59 62 67 78
0 31 63 52 20 0 0 0 0 0 0 0 0 0 0 0 2 7 3 3 0 0 0 7 19 27 39 43 37 30 31 40
0 2 38 52 22 2 0 0 0 0 0 0 0 0 0 0 0 0 1 3 1 0 0 1 0 3 5 13 9 13 24 18
0 25 56 48 52 26 8 0 0 0 0 0 0 0 0 0 0 0 0 0 1 0 0 0 0 0 0 3 5 3 6 2
0 1 52 85 70 44 25 14 1 0 0 0 0 0 0 0 0 0 0 0 0 1 4 1 0 0 0 0 0 9 22 38
0 0 8 76 126 97 47 17 11 1 0 0 0 0 0 0 0 0 0 0 0 0 0 0 0 0 0 0 1 5 0 0
0 0 0 39 115 126 104 65 30 9 0 1 2 0 0 0 0 0 0 0 0 0 0 0 0 1 0 1 0 0 0 0
0 0 0 0 10 125 128 104 76 27 2 2 5 5 1 0 0 0 0 0 0 0 0 0 1 1 0 0 5 1 0 0
0 0 0 0 0 6 99 157 133 59 25 5 1 2 4 8 0 0 0 0 0 0 0 1 3 7 0 0 0 1 1 1
0 0 0 0 0 0 22 85 125 101 63 49 18 1 7 11 14 9 0 0 1 3 5 7 15 3 0 0 0 1 2 2

GFSFLT1_con_mlcape_075.txt.gz
CAPE
87 106 2 0 0 17 6 2 3 2 2 3 5 10 11 5 19 27 54 94 90 61 52 58 34 35 2 0 3 0 0 0
117 111 3 0 0 2 14 1 5 3 2 3 3 3 1 0 3 9 23 46 63 60 58 65 53 9 0 19 12 4 1 0
177 154 57 0 0 2 10 6 7 3 2 3 2 2 1 6 10 5 2 39 25 19 31 57 68 24 53 64 74 54 21 0
181 193 107 8 0 0 7 7 2 4 8 5 5 5 11 18 35 15 0 21 40 10 10 44 82 101 117 122 133 122 93 53
186 217 129 60 0 0 5 8 4 3 8 2 0 0 3 4 2 1 7 8 30 35 34 37 90 103 135 184 190 165 54 30
139 226 156 99 2 0 0 1 14 2 8 6 1 2 1 2 3 6 2 0 20 51 18 1 8 31 64 147 136 121 120 36
51 216 199 117 21 0 0 2 9 8 1 16 6 14 3 3 2 1 2 0 1 13 3 4 0 0 2 26 48 25 33 62
2 151 218 135 63 1 0 0 1 1 6 10 10 10 10 3 7 2 2 0 0 0 11 3 0 0 0 2 7 10 22 8
0 51 231 166 100 22 0 0 0 0 3 6 6 3 4 8 2 0 6 2 1 0 0 0 0 0 5 14 14 28 32 24
0 0 158 204 130 67 0 0 0 0 0 6 7 7 4 5 7 6 3 2 0 0 0 0 0 0 0 20 8 2 18 13
0 11 100 200 201 105 32 0 0 0 4 4 6 9 16 26 8 6 5 6 0 0 0 0 0 0 7 40 34 18 14 14
0 41 122 211 213 204 98 18 0 0 0 0 1 1 2 37 25 20 5 7 5 7 0 0 0 9 23 22 7 12 27 19
0 12 78 207 223 225 185 70 20 1 0 2 3 0 0 0 24 74 22 7 10 6 7 0 1 2 7 7 0 0 12 17
20 6 60 193 226 211 207 168 94 45 0 0 14 26 7 0 4 8 10 50 10 9 13 8 3 5 6 0 0 2 14 6
0 4 9 126 256 240 237 279 239 150 29 2 3 48 38 21 6 4 8 3 10 13 13 14 15 11 12 15 21 18 22 37
0 0 4 20 150 309 297 280 315 254 151 78 58 86 57 25 26 17 7 11 14 9 9 7 9 8 6 5 6 11 21 28
0 0 0 5 8 178 303 358 369 323 285 247 170 140 90 71 60 39 7 6 8 20 5 4 2 2 0 0 0 0 0 3
0 0 0 0 1 7 27 268 333 349 336 319 269 233 194 160 106 47 27 19 14 7 5 3 1 1 0 0 0 0 0 0
0 0 0 0 0 0 0 9 164 360 359 304 289 254 237 206 167 129 69 43 35 47 47 45 37 31 0 0 0 0 0 4

GFSFLT1_con_mlcape_078.txt.gz
CAPE
6 0 1 0 33 13 4 3 2 1 2 2 2 0 1 1 0 0 0 0 2 38 51 47 70 93 52 0 3 0 0 0
58 0 1 0 6 10 0 0 2 3 1 2 2 2 1 7 5 3 2 0 19 49 51 42 43 21 14 0 0 0 0 0
94 48 2 0 0 0 3 3 1 2 2 2 2 2 3 2 3 0 0 13 27 26 41 42 48 40 5 14 3 10 4 1
44 150 75 0 0 0 1 4 4 3 3 7 3 3 5 7 8 3 3 13 43 39 56 53 46 34 35 13 22 25 22 1
60 206 184 23 0 0 0 1 4 1 5 2 3 1 2 2 0 2 0 0 14 21 29 66 54 50 64 68 95 127 99 20
16 196 238 148 11 0 0 0 1 6 5 5 5 3 1 0 4 2 0 0 4 15 3 23 30 63 61 94 127 141 114 68
1 229 258 172 39 0 0 0 3 2 3 3 3 6 3 2 2 1 0 0 0 3 9 3 30 61 84 123 128 120 90 58
0 139 265 194 67 0 0 0 1 2 2 4 0 0 1 2 1 0 0 0 0 0 0 0 10 22 38 68 78 87 46 7
0 49 264 246 126 0 0 0 0 1 1 3 1 2 1 2 1 1 0 0 0 0 0 0 0 0 1 1 1 14 18 17
0 0 252 294 223 24 0 0 0 0 0 1 3 9 16 0 1 0 1 0 0 0 0 0 0 0 0 0 0 0 5 4
12 10 243 348 314 162 0 0 0 7 0 0 1 1 8 6 4 1 2 0 0 0 0 0 0 0 0 0 0 0 3 7
0 11 141 424 416 306 105 0 0 0 22 2 0 0 1 1 2 5 3 8 1 0 0 0 0 0 0 0 0 0 0 0
4 1 75 309 419 417 283 127 2 0 0 9 8 11 0 0 6 1 6 4 5 0 5 0 0 0 0 0 0 0 3 4
0 0 37 103 404 425 461 275 145 20 2 10 19 12 28 28 26 43 16 21 0 2 0 3 0 0 0 0 0 0 1 10
0 0 0 90 189 419 434 471 307 135 71 19 30 33 40 34 16 24 98 56 41 21 0 2 0 0 0 0 0 0 0 0
0 0 0 0 10 367 390 429 495 306 167 142 54 70 85 76 52 46 52 54 74 30 23 2 0 0 0 0 0 0 0 0
0 0 0 0 0 0 24 402 451 491 377 304 190 70 60 108 115 76 59 45 49 62 62 26 1 0 0 0 0 0 0 3
0 0 0 0 8 12 0 0 177 468 543 488 390 255 127 111 144 117 102 76 50 56 64 60 46 29 12 2 0 0 0 3
0 0 0 6 17 0 0 2 0 14 547 576 551 464 341 253 183 157 145 118 92 70 47 51 48 53 44 15 0 0 1 1

GFSFLT1_con_mlcape_081.txt.gz
CAPE
0 0 0 0 1 0 0 3 13 7 0 0 0 2 1 0 2 0 0 1 7 20 22 22 25 18 0 0 1 0 0 0
0 0 0 0 0 0 0 2 1 4 5 1 0 1 2 2 0 0 0 10 2 12 19 24 74 47 0 0 0 0 0 0
6 0 0 0 0 0 0 0 2 2 2 2 2 2 2 2 0 0 0 0 0 4 3 7 19 28 10 0 0 0 0 0
7 0 0 0 0 0 0 0 2 2 3 3 2 3 3 5 2 0 0 0 0 0 0 3 1 4 0 0 0 0 0 0
19 5 0 0 0 0 0 0 0 1 5 2 1 2 2 2 0 0 0 1 0 0 0 0 0 2 9 2 0 0 0 0
23 18 0 0 0 0 0 0 1 3 6 3 1 1 1 1 1 0 0 0 0 0 0 0 7 13 2 10 4 19 18 0
38 42 0 0 0 0 0 0 1 1 3 5 1 0 0 2 1 0 0 0 0 0 0 0 0 14 28 10 37 62 45 39
29 72 66 0 0 0 0 0 0 1 1 4 4 0 0 0 0 0 0 0 0 0 0 0 2 11 34 58 57 63 92 68
29 119 125 49 0 0 0 0 0 0 2 3 2 5 0 0 0 0 0 0 0 0 0 0 0 14 32 71 89 90 91 63
76 158 149 99 0 0 0 0 0 0 1 1 1 1 0 0 0 0 0 0 0 0 0 0 0 0 11 25 58 66 60 37
10 168 181 126 17 0 0 0 0 0 0 0 2 0 0 1 0 0 0 0 0 0 0 0 0 0 0 0 11 23 44 27
7 9 201 162 63 0 0 0 0 0 0 0 0 3 4 8 1 1 0 2 0 0 0 0 0 0 0 0 0 0 0 2
0 0 177 229 169 44 15 0 0 0 0 0 0 0 0 1 1 0 4 1 1 0 0 0 0 0 0 0 0 0 0 0
0 0 0 2 205 209 54 13 7 0 0 0 0 0 0 0 0 0 3 1 1 0 0 0 0 0 0 0 0 0 0 0
0 0 0 0 0 24 170 106 35 8 0 0 0 0 0 0 0 0 0 0 0 0 0 0 0 0 0 0 0 0 0 0
0 0 0 0 0 0 0 4 165 85 23 0 0 0 1 5 0 0 0 0 0 0 0 0 0 0 0 0 0 0 0 0
0 0 0 0 0 0 0 0 0 120 125 108 20 12 32 35 27 15 15 23 13 7 1 0 0 0 0 0 0 0 0 0
0 0 0 0 0 0 0 0 0 0 20 158 137 83 39 51 61 51 40 27 25 40 35 18 16 9 0 0 0 0 0 0
0 0 0 0 0 0 0 0 0 0 0 0 0 106 128 59 28 50 68 56 34 33 41 46 41 33 5 0 0 0 0 0

GFSFLT1_con_mlcape_087.txt.gz
CAPE
0 1 43 90 110 38 21 0 0 0 0 0 0 3 2 16 6 3 22 6 0 0 0 0 0 0 0 0 0 0 0 1
0 0 63 116 89 50 9 0 0 0 0 0 4 0 5 3 2 1 2 4 0 0 0 0 0 0 0 0 0 0 0 0
0 1 89 124 82 53 2 0 0 0 0 0 0 0 2 3 1 2 2 2 0 0 0 0 0 0 0 0 0 0 0 0
0 12 80 79 46 45 7 0 0 0 0 1 0 1 1 0 0 1 2 2 1 0 0 0 0 0 0 1 0 0 0 0
0 0 48 40 33 27 10 0 0 0 0 0 0 0 1 1 0 1 0 0 1 0 0 0 0 0 0 7 9 8 6 7
0 20 40 6 17 17 3 0 0 0 0 0 0 0 0 0 0 0 2 0 0 0 0 0 0 0 0 12 24 26 25 15
0 2 2 0 0 4 0 0 2 0 0 0 0 0 0 0 0 0 0 1 0 0 0 0 0 2 0 9 26 14 10 9
0 0 0 0 1 3 0 1 0 1 4 3 0 0 0 1 1 0 1 0 0 0 0 0 0 0 0 8 20 31 6 0
0 0 0 0 10 2 0 0 0 0 1 2 0 0 0 1 0 0 0 0 0 0 0 0 0 0 2 4 0 12 25 7
0 0 0 4 10 6 0 0 0 0 0 1 0 1 0 0 0 0 0 0 0 0 0 0 0 0 0 7 9 0 1 4
0 0 1 1 23 6 0 0 0 0 0 0 0 0 0 0 0 0 0 0 0 0 0 0 0 0 0 0 0 6 0 1
37 7 0 1 1 0 0 0 0 0 0 0 0 0 2 2 0 1 1 0 0 0 0 0 0 0 0 3 3 6 4 9
36 53 11 0 0 0 0 0 0 0 0 0 0 0 3 3 1 0 0 0 1 0 0 0 0 0 0 0 0 6 1 8
0 0 0 0 0 0 0 0 0 0 0 0 0 0 0 2 2 1 0 1 1 0 0 0 0 0 0 0 0 0 0 0
0 0 1 0 0 0 0 0 0 0 0 0 0 0 0 0 1 2 0 0 1 1 0 0 0 0 0 0 0 0 0 0
0 0 0 0 0 0 0 0 0 0 0 0 0 0 1 0 1 1 1 1 0 0 0 0 0 0 0 0 0 0 0 0
0 0 0 0 0 0 0 0 0 0 2 2 1 0 0 0 0 0 0 0 0 0 0 0 0 0 0 0 0 0 0 0
0 0 0 0 0 0 0 0 0 0 0 0 1 1 0 0 1 1 1 0 0 0 0 0 0 0 0 0 0 0 0 0
0 0 0 0 0 0 0 0 0 0 0 0 0 0 1 3 2 1 1 2 2 1 1 1 1 0 0 0 0 0 0 0

GFSFLT1_con_mlcape_090.txt.gz
CAPE
0 0 0 0 27 140 51 0 0 1 0 0 2 1 5 8 7 30 34 2 3 1 0 0 0 0 0 0 0 0 0 0
0 0 0 1 24 136 26 0 1 1 0 0 3 1 1 1 3 4 19 22 0 0 0 0 0 0 0 0 0 0 0 0
0 0 0 8 68 108 18 0 0 0 0 0 0 2 2 2 4 1 4 0 1 0 0 0 0 0 0 0 0 0 0 0
0 0 0 36 85 76 15 0 1 1 1 1 0 0 0 1 0 3 2 1 1 0 0 0 0 0 0 0 0 0 0 0
0 0 0 42 86 32 9 1 0 1 0 1 1 0 1 0 0 1 2 2 2 3 0 0 0 0 0 0 0 0 0 0
0 0 0 22 69 19 9 2 2 1 0 0 0 0 1 1 0 2 0 1 2 2 0 0 0 0 0 0 0 5 0 0
0 0 0 15 28 3 8 4 0 1 1 1 0 0 0 0 1 0 0 0 2 3 2 0 0 0 0 0 0 13 18 11
0 0 0 1 14 0 1 6 0 0 1 0 0 0 0 0 0 0 1 0 0 2 2 1 0 0 0 0 0 4 9 35
0 0 0 0 5 0 0 7 0 0 1 0 0 0 0 0 0 0 1 0 0 0 1 1 0 0 0 0 0 10 14 0
0 0 0 0 1 0 0 3 0 0 2 0 0 1 0 0 0 0 1 0 0 0 0 0 0 0 0 0 0 0 2 2
0 0 0 1 0 0 0 1 0 0 1 1 1 2 0 0 1 2 0 0 0 0 0 0 0 0 0 0 0 0 3 3
0 0 0 0 0 0 1 0 0 1 0 0 0 1 0 1 0 0 0 0 0 0 0 0 0 0 0 0 0 0 0 1
0 0 0 0 1 2 3 4 0 2 1 0 1 1 1 2 1 0 0 0 0 0 0 0 0 0 0 0 0 0 0 0
2 1 2 1 1 0 1 0 0 0 1 1 1 0 0 1 1 1 1 1 0 0 0 0 0 0 0 0 0 0 0 0
3 3 4 3 2 1 1 0 1 0 0 1 1 1 0 0 0 1 2 1 1 1 0 0 0 0 0 0 0 0 0 0
2 3 2 2 3 3 4 3 0 2 1 1 0 0 0 0 0 0 0 1 0 0 0 0 0 0 0 0 0 0 0 0
0 0 0 2 1 5 1 1 1 0 0 0 0 0 0 0 0 0 0 0 0 1 0 0 0 0 0 0 0 0 0 0
1 0 0 0 0 1 0 1 0 0 0 0 0 0 1 1 1 0 0 1 1 1 1 1 1 0 0 0 0 0 0 0
6 3 1 0 0 1 1 0 0 0 0 0 0 0 0 0 0 1 3 3 2 3 1 2 1 1 1 0 0 0 0 0

GFSFLT1_con_mlcape_093.txt.gz
CAPE
0 0 0 0 5 122 173 29 0 0 1 0 1 4 12 13 17 10 15 20 26 20 2 2 2 2 0 0 0 0 0 0
0 0 0 0 0 50 137 0 0 0 0 1 3 1 5 16 21 26 8 1 2 2 2 2 2 1 0 0 0 0 0 0
0 0 0 0 0 19 52 0 0 0 2 2 1 1 1 7 9 5 4 0 0 0 0 1 0 0 0 0 0 0 0 0
0 0 0 0 0 0 9 0 0 1 1 1 2 4 1 4 9 8 2 0 0 0 0 0 0 0 0 0 0 0 0 0
0 0 0 0 0 60 10 0 0 2 0 1 2 0 2 3 1 4 0 1 0 1 0 0 0 0 0 0 0 0 0 2
0 0 0 0 0 97 11 1 3 3 0 0 1 1 0 5 1 0 4 2 2 1 0 0 0 0 0 0 0 0 1 7
0 0 0 0 57 108 7 1 1 4 1 1 1 0 0 7 2 0 2 1 1 1 1 0 0 0 0 0 0 0 0 9
0 0 0 0 60 42 17 1 0 2 3 3 0 0 1 4 0 0 2 1 2 2 2 2 1 0 0 0 0 0 0 1
0 0 0 0 96 43 23 5 0 1 3 3 1 2 2 6 1 0 1 0 1 1 2 2 1 0 0 0 0 0 0 0
0 0 0 0 90 61 24 7 1 3 2 2 1 2 3 3 0 0 0 0 0 2 2 2 0 0 0 0 0 0 0 0
1 0 0 2 120 24 4 2 3 2 2 0 1 2 0 3 0 0 0 0 2 0 0 2 3 0 0 0 0 0 0 0
3 0 0 28 73 2 1 2 2 4 2 2 5 3 1 2 1 0 0 0 3 4 3 0 1 2 2 1 0 0 0 0
5 3 40 44 9 2 3 2 2 1 1 1 2 2 0 2 3 1 2 2 1 1 2 2 2 3 5 3 0 0 0 0
5 2 3 2 4 3 2 2 2 1 1 1 2 1 0 1 4 2 0 1 1 0 0 0 1 0 0 0 0 0 0 0
5 5 5 4 1 3 2 1 1 2 2 3 1 0 0 2 1 3 3 3 2 0 0 0 0 0 0 0 0 0 0 0
6 5 5 4 4 4 4 6 3 2 2 1 1 2 3 3 1 0 2 2 5 5 4 1 0 0 0 0 0 0 0 0
0 3 5 5 5 5 5 4 4 4 2 2 4 1 0 0 0 0 0 0 0 0 1 7 4 3 0 0 0 0 0 0
6 6 3 3 4 3 3 4 1 0 1 5 3 2 1 1 2 1 1 0 0 0 0 0 1 2 2 0 0 0 0 0
2 2 2 3 1 2 1 0 0 0 0 1 1 0 3 2 1 4 2 4 5 6 2 1 5 9 0 1 1 0 1 1

GFSFLT1_con_mlcape_096.txt.gz
CAPE
0 0 0 0 0 206 719 935 572 269 220 93 65 151 4 87 128 51 115 42 23 34 47 16 1 2 2 3 37 59 70 58
0 0 0 0 0 0 485 915 613 195 78 41 28 54 1 12 75 22 75 23 3 10 53 27 2 2 1 0 66 64 40 58
0 0 0 0 0 0 318 784 327 226 191 151 44 2 5 14 24 14 35 10 0 9 30 2 2 2 2 2 64 41 9 13
0 0 0 0 0 0 185 692 135 203 378 156 9 3 2 15 14 1 0 1 2 1 2 2 2 2 2 11 21 24 16 19
0 0 0 0 0 8 133 582 2 138 249 141 26 0 0 8 1 11 3 3 1 0 0 2 1 2 1 0 10 14 8 15
0 0 0 0 0 89 200 217 3 26 47 242 17 2 0 10 4 19 6 3 3 1 2 2 3 1 0 1 4 2 23 25
0 0 0 0 0 197 433 4 3 12 47 69 20 0 0 15 6 13 2 1 1 1 1 0 0 1 0 0 0 0 4 52
0 0 0 0 6 358 351 3 11 9 7 8 0 0 0 14 8 10 2 1 1 1 2 2 0 0 0 0 0 0 2 24
0 0 0 0 5 387 229 3 50 23 4 2 0 0 0 15 3 7 5 2 2 2 2 3 0 1 0 0 0 0 0 0
0 0 0 17 0 414 162 31 178 12 9 3 1 1 0 7 8 3 18 8 2 1 2 1 1 0 0 0 0 0 0 0
0 0 0 0 10 395 57 29 38 7 1 1 2 1 0 2 13 9 4 19 3 3 3 2 2 2 3 0 0 0 0 0
0 1 0 3 112 334 27 15 8 5 5 1 4 2 1 2 9 9 2 0 3 3 4 2 2 1 1 1 0 0 0 0
0 2 3 4 38 0 6 11 4 3 1 0 3 1 2 4 6 12 1 0 0 1 5 2 2 1 1 0 0 0 0 0
0 2 3 5 3 7 9 3 3 46 1 4 2 0 3 6 2 20 15 16 8 11 19 5 3 2 2 0 0 0 0 1
0 2 3 5 6 3 1 0 0 1 2 4 4 2 2 3 13 21 8 3 19 21 20 29 22 15 15 24 21 21 17 1
0 2 3 4 5 6 7 2 3 2 1 2 2 3 4 3 24 19 8 5 1 7 10 7 12 20 17 16 11 5 1 1
0 0 1 3 4 5 5 6 7 3 3 4 7 5 1 0 0 0 0 0 3 18 18 24 21 0 2 0 0 11 5 3
0 1 0 3 5 2 5 5 4 5 5 1 3 3 6 6 3 2 2 3 2 0 1 2 4 8 4 3 0 0 0 6
1 1 2 1 2 1 0 0 1 2 3 6 4 0 4 5 5 5 6 5 5 6 6 8 7 5 0 0 0 0 1 1

GFSFLT1_con_mlcape_099.txt.gz
CAPE
0 0 0 0 0 0 249 1309 1597 1160 846 869 436 371 279 484 521 168 99 194 192 184 88 93 95 34 40 30 46 41 39 48
0 0 0 0 0 0 167 970 1485 1177 727 659 433 437 163 326 291 238 126 140 78 42 18 12 3 11 8 14 23 30 35 76
0 0 0 0 0 0 0 518 1237 1222 593 583 510 400 320 443 219 98 46 115 107 28 11 12 2 7 2 7 16 23 39 46
0 0 0 0 0 0 0 30 786 1186 763 700 647 589 261 266 149 137 53 123 32 9 9 9 2 2 2 0 7 32 41 29
0 0 0 0 0 0 0 0 461 1018 866 843 807 431 242 46 56 10 15 4 1 1 2 4 10 1 2 2 12 25 32 32
3 0 0 0 0 0 0 10 466 726 875 944 819 648 325 48 0 5 0 2 1 1 1 1 2 3 2 3 28 32 50 56
4 1 0 0 0 0 0 250 914 576 633 1002 816 697 377 11 0 7 9 2 3 1 2 1 2 2 3 3 55 63 74 57
0 0 0 0 0 0 0 470 851 354 334 801 924 761 324 8 0 5 2 2 2 2 2 2 3 4 2 13 33 59 56 35
0 0 0 0 0 0 58 693 420 32 138 801 839 693 224 5 0 4 4 2 1 2 2 0 0 0 2 0 3 1 14 25
0 0 0 0 0 14 204 623 60 13 55 694 741 515 104 1 0 5 1 5 2 1 3 2 2 1 0 0 0 0 0 7
0 0 0 0 0 1 450 303 140 22 60 199 389 381 12 8 0 1 5 22 3 3 3 2 2 3 3 3 2 1 0 1
0 0 1 1 0 134 643 211 102 22 35 23 49 209 12 6 8 7 5 9 4 2 2 2 2 2 1 1 1 0 0 0
0 2 2 1 2 7 126 56 19 2 0 4 8 13 9 3 9 8 2 13 27 8 4 3 2 2 2 1 3 0 0 0
0 0 3 4 4 6 4 12 2 3 7 3 7 2 2 5 6 11 7 7 9 20 16 4 3 2 2 2 1 0 0 0
0 0 0 3 3 5 6 4 0 2 2 4 18 3 16 3 5 19 13 10 8 12 19 10 4 2 2 2 0 0 0 0
5 6 0 0 3 4 5 6 7 5 2 1 0 6 7 9 1 35 12 20 22 31 33 28 30 21 1 0 0 0 0 0
4 3 4 0 2 2 2 3 5 7 5 6 7 2 1 0 0 0 4 2 0 0 0 0 0 1 10 1 0 1 18 14
2 2 0 2 0 2 3 3 3 3 5 5 6 7 6 5 5 3 2 3 3 6 7 7 7 9 6 1 0 0 8 19
4 1 1 1 2 1 0 2 2 2 2 3 5 4 4 5 6 6 5 6 10 9 10 7 6 3 1 0 0 2 1 4

GFSFLT1_con_mlcape_105.txt.gz
CAPE
0 0 0 0 0 503 1363 1511 1455 1293 1337 1491 1218 912 649 733 764 513 438 393 482 519 383 315 131 76 109 77 24 3 27 6
0 0 0 0 0 647 1300 1414 1361 1199 926 1455 1189 935 546 432 518 615 617 432 404 369 321 232 130 81 62 93 33 11 1 9
0 0 0 0 0 48 1185 1314 1281 1188 732 1139 1099 912 620 493 301 379 377 361 248 249 219 146 83 71 48 62 37 11 6 17
0 0 0 0 0 0 1611 1397 1265 1112 939 745 739 533 450 297 166 173 229 185 212 96 37 65 35 42 42 70 34 18 5 14
0 0 0 0 0 0 0 1693 1438 1126 962 750 489 309 235 258 87 56 115 181 87 110 41 0 0 4 7 16 24 17 4 19
0 0 0 0 0 0 0 0 521 1230 1008 883 542 383 217 198 84 185 180 192 89 43 20 0 0 1 2 4 25 12 8 22
0 0 0 0 0 0 0 0 0 229 811 898 725 480 344 275 205 153 96 61 29 3 0 0 2 2 4 6 34 2 13 13
0 0 0 0 0 0 0 0 0 0 821 768 866 663 543 420 279 143 45 29 0 0 0 2 2 1 2 3 4 24 6 11
0 0 0 0 0 0 0 0 0 0 164 910 907 729 454 468 249 89 21 0 0 0 0 2 2 3 5 2 4 2 16 4
0 0 0 0 0 0 0 0 0 0 0 1108 954 890 731 463 116 72 0 0 0 1 2 1 3 2 1 2 4 1 4 5
0 0 0 0 0 0 1 3 1 0 122 948 787 726 717 384 85 32 0 0 0 0 1 1 3 1 1 0 1 3 3 2
2 2 1 1 1 2 3 6 5 0 437 496 357 451 486 134 48 11 12 0 0 0 1 1 0 0 0 0 0 1 3 3
0 1 2 2 3 3 4 7 9 4 0 19 6 110 213 47 20 23 5 0 0 2 1 1 0 0 0 0 0 0 0 0
3 1 2 3 2 4 1 5 9 9 5 17 15 73 9 16 8 28 31 2 1 1 0 0 1 0 0 0 0 0 0 0
4 3 4 2 3 2 4 3 5 4 9 6 0 4 21 14 11 23 55 30 4 1 0 0 2 1 0 0 1 0 0 0
4 3 3 3 3 3 3 2 1 4 4 8 8 6 1 0 0 15 36 50 12 2 0 3 1 1 0 1 1 1 1 1
4 3 3 3 3 3 2 3 1 1 4 3 4 7 5 7 6 2 1 0 0 0 0 0 0 1 2 0 0 1 1 1
0 2 3 2 3 4 4 2 2 0 1 2 4 4 8 9 7 8 10 14 11 9 8 7 8 6 3 1 0 0 0 0
0 0 1 2 2 2 3 3 1 3 0 0 3 2 5 5 6 8 5 8 7 6 6 4 4 3 2 2 1 3 6 8

GFSFLT1_con_mlcape_108.txt.gz
CAPE
0 0 0 0 0 160 806 1279 1566 1516 1292 1253 1021 880 815 780 724 638 558 591 332 278 172 94 39 13 7 39 64 10 0 12
0 0 0 0 0 0 411 886 1436 1414 1312 1229 1157 1013 688 678 570 587 425 547 543 291 190 107 40 36 26 17 8 8 3 4
0 0 0 0 0 0 21 531 1138 1412 1473 1381 1261 991 713 604 594 753 492 295 395 505 315 156 46 17 3 15 6 1 2 3
0 0 0 0 0 173 1258 1309 1145 1342 1466 1319 917 687 621 578 502 498 490 382 277 215 205 193 133 91 31 12 5 0 1 2
0 0 0 0 0 0 2 1429 1304 1142 946 1141 968 814 801 687 501 284 353 421 350 201 94 61 46 53 61 1 2 1 0 0
0 0 0 0 0 0 0 0 0 219 819 843 869 897 746 387 281 242 205 177 159 172 71 27 1 21 3 4 3 3 1 7
0 0 0 0 0 0 0 0 0 0 10 765 833 702 522 353 198 165 33 34 28 93 51 26 16 2 0 1 3 3 9 26
0 0 0 0 0 0 0 0 0 0 0 14 732 581 414 359 226 119 42 28 24 45 44 28 0 1 1 2 7 30 42 17
0 0 0 0 0 0 0 0 0 0 0 0 260 692 404 291 216 151 80 36 31 2 6 0 0 0 0 3 14 15 24 2
0 0 0 0 0 0 3 1 0 1 0 0 0 711 460 469 312 162 94 44 11 0 0 0 0 0 2 3 9 11 1 5
1 3 4 3 2 2 3 0 2 4 2 0 0 690 502 408 245 197 107 21 0 0 0 0 0 4 1 3 5 2 5 1
2 1 1 2 2 2 4 2 3 6 6 2 61 476 302 220 204 98 44 6 0 0 0 0 1 0 1 2 2 7 2 1
3 2 2 3 3 3 3 6 4 5 7 4 3 2 80 56 97 14 7 17 0 0 0 0 1 1 0 5 1 1 3 1
2 2 4 4 4 2 4 4 5 5 6 7 3 0 1 32 45 1 0 0 0 0 0 1 0 2 0 0 2 0 0 1
2 2 3 4 4 3 4 3 3 4 5 5 8 6 4 1 14 0 0 0 0 0 0 0 1 1 0 0 0 1 0 0
5 4 3 4 4 4 3 3 3 3 2 2 8 7 7 6 2 3 2 1 0 0 0 1 0 0 0 0 1 0 1 0
3 5 4 3 4 4 3 3 3 2 3 3 3 5 4 7 8 7 3 0 0 0 0 0 0 0 0 0 0 0 0 0
0 2 4 3 3 4 4 3 2 1 3 4 3 1 3 5 5 5 13 10 8 7 7 6 5 5 3 1 0 0 0 0
0 0 1 2 2 1 1 2 2 1 1 3 5 3 1 2 0 2 2 6 9 11 10 9 7 9 6 4 0 2 3 5

GFSFLT1_con_mlcape_111.txt.gz
CAPE
0 0 0 220 1548 1925 2067 1855 1700 1639 1480 1386 1130 1123 924 720 703 692 576 427 251 166 112 68 47 16 0 0 0 1 1 0
0 0 0 0 0 1138 1627 1735 1704 1649 1462 1340 1120 1414 1075 885 745 727 687 482 355 260 184 97 34 44 25 12 1 2 2 1
0 0 0 0 0 0 348 1443 1308 1532 1556 1438 1161 1279 916 907 694 621 688 606 426 367 272 166 71 38 33 19 1 2 3 2
0 0 0 0 0 0 0 762 1271 1515 1526 1221 1022 786 586 601 773 781 660 577 492 439 299 204 93 58 45 20 0 3 1 2
0 0 0 0 0 0 0 695 1373 1359 1501 1309 1126 1170 954 846 696 617 613 428 395 373 392 251 126 72 52 32 2 8 12 8
0 0 0 0 0 0 0 0 0 0 1006 1275 1163 1163 986 715 622 508 518 485 437 252 202 178 195 127 104 85 7 12 10 11
0 0 0 0 0 0 0 0 0 0 0 214 1047 1041 973 830 630 521 444 351 385 328 184 117 79 61 43 59 8 11 13 10
0 0 0 0 0 0 0 0 0 0 0 0 1 884 849 785 652 566 374 283 218 145 110 92 72 57 37 10 4 4 9 10
4 3 4 5 3 1 0 0 0 0 0 0 0 0 731 603 444 405 332 221 167 44 45 53 65 44 15 0 2 4 4 4
4 3 2 4 5 5 3 2 0 0 0 0 0 0 199 634 440 212 228 138 79 26 26 40 29 38 17 0 1 3 5 7
4 3 3 2 2 3 3 4 4 4 2 0 0 0 0 676 421 232 142 109 37 20 2 6 1 0 0 0 1 2 4 3
4 3 3 3 3 3 3 6 6 5 5 7 4 1 0 459 381 126 127 81 30 10 0 0 0 0 0 0 1 2 3 3
2 1 3 4 5 3 3 4 6 5 6 5 7 5 1 104 98 46 32 35 11 6 4 0 0 0 0 0 1 3 2 3
3 3 4 4 4 4 4 4 5 5 6 5 6 8 5 2 2 9 1 14 6 2 3 1 1 0 0 0 0 1 1 2
4 3 4 4 4 4 4 3 2 4 4 6 7 7 9 7 6 3 2 1 2 2 1 1 0 0 0 0 0 0 0 0
5 3 4 4 4 2 2 2 3 2 5 6 6 5 4 5 6 8 3 1 2 2 1 2 2 1 0 1 0 0 0 0
3 4 3 4 4 2 2 4 3 2 4 4 3 4 4 0 3 1 2 14 4 3 0 0 0 0 0 0 0 1 0 0
1 3 3 3 3 2 3 4 3 4 4 4 3 3 4 4 1 0 0 3 5 10 10 9 6 6 3 0 0 1 0 0
1 2 1 2 1 2 2 4 6 4 2 3 4 3 3 3 4 2 1 0 1 2 3 5 9 8 7 4 0 1 2 4

GFSFLT1_con_mlcape_114.txt.gz
CAPE
0 0 0 384 1368 1532 1589 1665 1562 1194 1038 886 758 576 453 375 338 333 317 475 424 379 241 133 74 77 50 1 0 1 0 0
0 0 0 0 247 1396 1694 1788 1713 1520 1450 1256 1002 841 697 613 518 462 365 362 355 320 226 89 80 97 59 3 0 1 3 0
0 0 0 0 0 0 1115 1906 1747 1678 1656 1469 1182 1118 1021 884 693 619 579 439 335 306 219 94 67 70 32 14 10 14 2 1
0 0 0 0 0 0 0 1008 1823 1707 1585 1361 986 957 808 904 795 765 765 553 417 355 234 153 55 57 41 29 34 27 10 1
0 0 0 0 0 0 0 17 1148 1511 1665 1535 1338 1346 1183 1109 1087 831 753 540 586 396 288 252 143 89 66 62 50 31 11 5
0 0 0 0 0 0 0 0 0 0 543 1624 1312 1342 1177 953 900 862 807 670 509 478 406 253 196 92 85 71 51 28 15 15
3 1 1 0 0 0 0 0 0 0 0 77 1062 1307 1219 993 839 852 751 666 484 456 401 308 187 170 116 77 56 33 29 9
4 4 4 3 2 1 1 0 0 0 0 0 0 179 1158 1111 966 865 742 611 447 549 382 348 283 214 130 73 62 36 41 11
5 4 3 2 3 3 2 0 0 0 0 0 0 0 2 731 779 826 617 546 443 437 403 261 180 93 93 68 56 33 33 8
5 5 3 3 3 2 3 3 2 2 4 0 0 0 0 3 591 548 491 343 329 143 199 174 87 58 49 49 47 21 1 3
4 4 4 4 3 2 3 3 4 3 6 5 4 4 0 0 9 435 482 323 163 97 86 76 54 29 33 26 5 1 2 2
3 3 2 2 2 2 3 3 6 6 6 6 7 6 3 0 0 399 268 146 87 84 45 20 17 5 1 1 1 1 0 0
2 3 3 2 2 1 2 4 6 5 4 6 6 4 7 3 0 0 233 137 37 15 23 5 2 2 1 2 0 0 0 0
2 3 3 2 3 3 2 4 4 3 3 6 6 9 8 7 4 3 0 18 41 5 0 1 2 1 1 1 0 0 0 0
3 2 4 2 2 3 4 4 3 2 3 5 6 7 7 7 7 6 3 1 1 0 0 1 1 2 2 1 0 0 0 0
4 4 4 4 1 3 4 4 3 2 4 4 4 4 4 5 6 4 2 2 7 1 0 1 1 1 1 1 0 0 0 0
2 3 3 3 3 4 5 5 4 4 4 4 3 3 5 5 5 5 4 1 0 4 11 6 10 7 12 0 0 6 0 1
2 3 3 2 3 2 4 4 3 6 4 3 3 3 4 4 4 5 7 6 3 0 1 2 5 5 7 3 3 0 0 0
1 2 0 1 1 0 1 3 3 5 5 5 5 3 3 4 4 6 5 5 5 5 3 4 0 1 2 3 6 5 2 3

GFSFLT1_con_mlcape_117.txt.gz
CAPE
0 0 0 0 0 227 1340 1259 1161 883 861 735 665 565 594 694 688 717 643 710 765 806 571 389 210 151 46 70 16 4 30 54
0 0 0 0 0 88 1325 1581 1318 1025 860 604 532 468 488 500 691 717 537 611 663 786 509 316 147 165 111 71 11 18 2 8
0 0 0 0 0 0 1487 1800 1707 1255 1126 975 902 707 736 640 548 616 611 610 543 692 548 333 177 159 97 30 23 4 5 2
0 0 0 0 0 0 1 1598 1947 1681 1577 1333 1210 1105 1099 968 787 687 681 696 525 562 512 387 235 203 142 46 28 46 28 3
1 1 3 1 0 0 0 137 1769 1841 1452 1548 1403 1372 1290 1292 1155 933 842 755 646 565 493 426 280 187 173 58 27 54 19 5
5 2 3 2 1 0 0 0 0 87 1329 1633 1495 1525 1581 1446 1367 1054 914 807 621 684 588 471 372 245 249 176 93 62 63 80
4 2 1 2 1 1 0 0 0 0 1 84 1204 1535 1662 1423 1375 1262 1166 877 714 771 671 558 458 379 407 220 144 92 92 61
6 6 6 5 4 4 1 1 1 1 1 0 1 181 789 1327 1305 1316 1096 996 820 858 672 576 542 475 343 272 179 112 55 43
6 6 5 5 5 4 3 3 1 1 3 2 0 1 2 50 1001 1112 1160 957 919 713 471 561 516 347 267 245 244 141 106 86
4 7 5 4 5 5 5 4 4 4 4 5 2 3 1 3 0 393 857 889 742 670 484 428 347 329 225 176 254 136 66 73
1 5 4 3 3 2 2 3 5 4 4 7 7 6 3 2 2 0 165 504 504 381 407 382 327 209 169 126 200 116 53 45
1 2 2 2 1 3 3 3 4 5 5 6 7 8 6 4 5 1 0 240 284 198 236 290 248 154 100 77 107 64 42 22
0 1 1 2 3 3 4 4 5 3 4 4 5 6 7 7 9 6 6 0 166 213 135 88 75 89 77 29 36 19 6 5
0 0 1 3 4 4 4 3 3 3 3 4 6 6 7 10 9 5 8 4 1 13 67 48 42 20 0 1 3 2 1 1
0 1 3 2 3 4 5 4 2 1 2 4 6 5 6 6 5 5 5 8 3 2 0 1 0 0 0 1 1 1 1 1
2 2 2 3 3 3 3 3 2 2 3 3 4 3 2 3 6 5 5 5 5 4 4 4 5 5 10 3 0 1 2 2
2 2 3 3 3 3 3 4 3 3 5 5 3 3 3 4 5 5 5 5 5 4 8 2 2 1 1 1 1 0 1 1
3 3 3 2 3 1 4 3 2 4 5 6 6 4 3 4 4 5 5 7 4 7 7 6 7 6 5 0 0 1 1 1
3 2 1 2 1 1 0 0 2 4 6 7 6 6 4 3 4 4 4 4 6 7 7 4 6 4 3 3 0 4 2 5

GFSFLT1_con_mlcape_120.txt.gz
CAPE
0 0 0 0 0 0 0 0 1324 1344 1291 1149 992 1020 974 1011 1236 1323 1223 1279 1204 1071 1031 983 856 803 521 523 455 717 617 553
0 0 0 0 0 0 0 0 266 1551 1357 1002 862 948 911 962 1111 1179 1269 1125 1179 1214 986 812 766 727 495 430 491 528 671 573
0 0 0 0 0 0 0 0 4 1472 1538 1228 946 1049 873 873 938 1098 1317 1041 1132 1311 1064 909 602 658 513 428 328 381 414 398
0 7 0 4 0 0 0 20 37 1228 1469 1630 1265 1185 1022 931 909 1127 1347 1280 1033 1104 1083 799 632 573 559 384 277 330 332 126
0 5 3 4 1 0 0 2 689 1594 1669 1678 1369 1368 1241 1385 1179 1060 1026 1116 1272 921 1087 861 726 581 600 412 279 221 315 113
4 5 4 5 0 0 0 0 4 496 1811 1672 1459 1745 1711 1837 1682 1375 1213 1048 1300 1319 1163 1006 934 692 716 571 241 221 303 329
4 7 5 4 1 1 0 1 4 4 23 881 1523 1274 1897 2117 1870 1835 1313 1127 1039 1097 1374 1204 993 849 713 576 358 282 259 289
1 1 4 6 5 3 1 1 4 4 7 6 16 575 802 2171 2042 1955 1450 1332 1061 1031 1353 1245 1063 904 812 611 530 464 536 435
1 0 5 3 5 4 4 3 4 4 5 5 6 5 12 157 639 980 1721 1432 1316 1237 1088 1072 1021 931 795 986 890 724 624 485
1 2 4 5 6 4 5 5 4 4 4 3 6 5 4 5 1 13 237 1461 1288 1153 1073 938 858 867 800 751 838 642 615 574
0 2 4 4 4 2 1 1 5 4 5 4 6 7 7 5 4 4 2 2 598 1005 845 772 731 679 623 504 506 463 344 321
0 1 3 2 1 1 2 2 4 4 4 6 8 8 6 6 7 6 4 2 0 568 677 567 505 532 287 193 199 282 294 314
1 1 2 2 2 2 3 3 4 3 3 3 6 7 4 8 9 7 7 5 3 4 350 484 490 393 287 184 159 147 231 248
1 1 1 2 2 2 2 2 2 1 1 3 4 6 7 7 7 5 6 6 5 6 1 0 109 144 165 112 59 58 84 138
2 2 1 2 1 1 1 1 1 2 1 0 4 5 4 4 3 4 5 5 6 6 6 8 7 3 2 1 0 12 25 19
0 1 1 2 2 2 0 1 0 0 1 0 1 1 1 1 2 3 3 4 3 4 6 4 4 5 7 5 1 1 0 1
0 1 2 2 1 1 0 0 1 0 0 1 0 0 0 2 1 1 2 3 3 4 5 5 9 5 6 7 1 4 0 0
2 3 3 3 2 1 0 0 1 1 0 0 0 0 0 1 1 3 3 5 3 5 5 5 6 6 3 4 6 5 4 5
2 3 2 2 2 3 0 0 0 2 3 3 1 1 1 0 1 3 2 2 3 4 5 3 4 5 4 1 2 4 4 3

GFSFLT1_con_mlcape_123.txt.gz
CAPE
0 0 0 0 0 0 0 0 0 0 1671 1667 1444 1409 1402 1281 1368 1582 1722 1678 1715 1657 1620 1435 1535 1551 1126 1280 1268 1203 1052 713
0 0 0 0 0 0 0 0 0 0 675 1510 1523 1367 1284 1293 1193 1404 1765 1545 1627 1643 1453 1371 1427 1471 1069 1030 1123 1270 999 990
0 0 0 1 0 7 16 0 0 0 0 1390 1380 1333 1257 1341 1173 1378 1761 1541 1459 1532 1477 1343 1285 1203 1084 949 1049 948 1142 990
5 7 1 1 0 0 0 0 4 0 0 1488 1398 1496 1199 1107 979 1265 1718 1728 1304 1267 1379 1237 1160 1098 1030 1062 899 861 955 1035
6 4 4 5 4 1 0 0 0 0 0 335 1321 1273 1154 995 1042 1262 1555 1769 1328 1255 1390 1244 1008 915 948 963 986 850 796 544
3 4 2 3 4 2 2 0 4 1 2 101 1410 1187 1414 1193 1266 1225 1380 1710 1499 1185 1193 1246 983 827 839 973 757 892 809 661
8 2 2 2 1 2 0 0 2 2 3 550 1486 1278 1543 1331 1403 1647 1544 1473 1317 1665 1179 1206 1107 856 833 898 768 686 729 644
6 3 1 1 2 3 2 2 4 2 1 4 31 1050 1184 1474 1469 1667 1682 1296 1115 1578 1748 1497 1116 1038 919 882 767 673 568 549
2 1 1 1 1 1 5 5 4 2 3 4 5 5 24 11 0 0 1147 1203 1204 1364 1352 1524 1639 1143 943 864 753 660 607 510
1 1 1 1 0 0 3 4 3 4 2 3 5 5 5 0 0 0 63 66 598 1463 1447 1204 1244 1032 954 941 899 1005 907 858
1 1 1 1 0 0 2 4 3 4 4 2 3 4 5 4 2 1 5 3 2 261 1497 1286 1055 931 963 894 917 1037 858 946
1 1 0 0 1 0 2 6 3 3 2 2 4 4 4 6 9 5 5 3 4 2 253 973 809 710 546 642 630 667 827 675
1 1 0 1 1 1 2 2 2 2 1 2 2 3 8 8 6 5 4 5 6 8 4 3 45 303 378 328 385 309 447 553
1 1 1 0 1 0 0 0 0 1 2 2 2 3 2 4 5 3 2 4 4 4 6 7 11 6 2 1 2 26 242 311
1 1 1 1 1 1 2 2 1 0 0 3 2 2 2 2 2 2 3 3 3 4 5 6 6 7 8 7 4 1 0 10
0 0 1 1 1 0 1 2 1 0 1 2 2 2 0 1 2 2 2 3 3 3 3 4 5 6 5 7 4 7 7 3
1 2 1 2 2 1 2 3 2 0 0 2 2 1 1 1 2 3 3 3 3 3 3 3 6 5 4 3 6 9 8 6
2 3 2 1 2 2 2 1 0 3 2 2 1 1 1 1 3 2 3 3 3 4 4 4 6 4 4 1 3 3 7 7
1 0 0 0 2 1 1 0 0 1 2 2 1 1 1 2 1 2 1 1 2 2 3 2 3 3 3 3 2 2 2 3

GFSFLT1_con_mlcape_126.txt.gz
CAPE
0 0 0 0 0 0 0 0 0 0 0 1 1336 1346 1083 1679 1644 1690 1813 1967 2037 1670 1900 1895 1747 1476 1090 1151 1050 1046 997 685
0 0 0 0 0 0 0 0 0 0 0 0 598 985 850 1276 1523 1857 1830 1728 1801 1522 1509 1971 1896 1691 1508 1387 1236 1203 1193 1074
0 0 0 0 0 0 0 0 0 0 0 0 13 472 866 930 1499 1505 1868 1667 1700 1581 1393 1426 1484 1434 1558 1198 1123 1306 1303 1048
0 0 1 1 0 0 1 0 0 0 0 0 0 0 513 607 1155 1219 2036 1906 1776 1685 1371 1225 1213 1164 1259 966 861 992 1176 969
0 1 1 0 1 1 0 1 0 0 0 0 0 0 0 515 990 1156 1824 1950 1718 1611 1283 1210 1003 1073 997 1077 791 843 797 1072
1 2 0 2 1 2 0 1 0 0 0 0 2 0 0 0 841 1120 1412 1864 1587 1476 1198 1211 996 855 927 903 831 831 689 1002
0 2 1 1 3 0 1 2 2 0 0 0 2 3 0 0 713 780 1182 1739 1420 1223 991 1179 1056 817 796 795 732 827 643 801
2 1 2 3 2 1 3 3 1 0 0 1 3 3 6 10 419 875 1015 1442 1502 1152 970 1016 1010 823 784 744 763 691 680 674
0 2 2 1 2 2 2 2 1 1 1 1 1 1 0 13 5 12 714 1131 1301 1503 939 899 977 957 817 724 682 747 621 584
0 1 1 2 1 1 0 1 3 3 1 1 5 5 1 3 0 0 3 0 0 330 956 1343 1274 1106 965 787 733 653 629 598
0 1 1 1 1 0 1 0 2 3 1 2 4 8 6 4 1 0 1 1 0 5 4 458 893 1228 1226 981 916 772 636 582
0 1 0 0 0 0 0 0 1 1 2 2 4 5 7 8 6 9 5 4 6 2 5 6 1 98 303 923 1085 922 850 926
1 1 1 0 0 0 0 0 0 1 1 3 3 2 2 5 9 10 6 8 7 7 7 7 7 9 7 2 2 104 683 744
1 1 1 0 0 0 0 0 1 1 1 2 1 1 2 5 5 5 5 9 9 5 6 9 8 8 5 5 3 2 1 1
1 1 0 0 0 0 0 0 0 0 1 1 1 1 2 2 2 3 4 4 5 6 5 6 6 7 8 7 6 7 5 4
0 1 2 1 1 0 0 0 1 0 0 1 1 1 0 1 1 1 1 1 2 3 3 3 3 5 3 6 5 3 6 4
0 0 0 1 1 1 1 2 1 0 1 1 1 0 0 0 0 1 1 1 2 2 2 3 3 2 3 2 2 5 4 4
0 0 0 0 0 0 1 1 2 1 1 1 1 0 1 1 2 1 1 2 1 2 2 1 2 2 2 1 1 2 3 4
0 0 0 0 0 0 0 0 0 0 0 1 0 0 0 0 0 0 0 0 1 1 1 1 2 2 1 0 1 1 1 1

GFSFLT1_con_mlcape_129.txt.gz
CAPE
0 0 0 0 0 0 0 0 0 0 0 0 0 0 9 766 680 1190 1896 2024 1970 1978 1670 1438 1502 1384 1030 922 851 663 586 498
0 0 0 0 0 0 0 0 0 0 0 0 0 0 0 601 560 729 1254 1888 1974 1913 1835 1705 1588 1378 1074 903 769 675 701 750
0 0 0 0 0 0 0 0 0 0 0 0 0 0 0 0 12 711 752 1201 1616 1898 1732 1763 1655 1397 1058 911 688 742 772 825
0 0 0 0 0 0 0 0 2 0 0 0 0 0 0 0 0 0 588 1047 1383 1696 1611 1581 1564 1398 1158 1011 887 850 970 904
0 0 0 0 0 0 0 0 1 0 0 1 1 0 0 0 0 0 18 636 1274 1445 1404 1204 1448 1429 1331 1110 990 1010 951 961
0 0 0 0 0 0 0 0 0 1 1 0 1 0 1 0 0 0 0 45 964 1335 1276 1106 1013 1008 1036 1122 846 502 718 762
0 0 0 0 0 0 1 0 2 1 1 1 2 3 1 0 0 0 0 0 341 1310 1259 966 856 856 751 724 671 473 440 592
0 1 1 1 0 1 2 2 2 2 1 1 1 0 12 2 0 0 1 0 0 828 1194 870 788 766 724 699 550 587 541 419
0 0 1 1 0 0 2 2 1 2 2 1 1 3 1 0 0 6 8 0 0 243 1005 749 821 701 677 607 557 532 589 519
0 0 0 1 0 0 1 2 2 2 2 2 1 2 2 1 0 0 0 0 0 0 516 731 773 671 603 554 559 576 501 463
0 1 1 0 0 0 0 1 2 1 1 2 2 2 5 4 5 2 0 0 0 0 4 21 413 422 584 530 518 532 519 456
0 0 0 1 0 0 0 1 1 1 0 1 1 2 3 4 8 7 7 6 0 0 5 5 11 9 4 42 162 350 626 550
1 1 1 0 1 0 0 0 0 0 0 0 1 1 3 6 8 6 4 4 6 6 10 4 0 6 11 10 6 4 2 13
0 0 0 0 1 0 0 0 0 0 0 0 0 1 4 4 3 4 1 3 4 9 6 12 12 7 8 6 6 5 5 5
0 0 0 1 1 0 0 0 0 0 0 0 0 0 2 3 1 1 0 1 1 2 2 2 6 7 7 8 6 6 7 7
0 0 0 0 0 0 0 0 0 0 0 0 1 0 1 1 1 2 1 1 0 0 1 2 1 2 2 5 5 5 4 2
0 0 0 0 0 0 0 0 0 0 0 0 0 0 0 1 1 1 1 1 1 1 1 2 2 2 1 1 0 0 2 6
0 0 0 0 0 0 0 0 0 0 0 0 0 0 0 1 0 1 1 1 0 1 1 1 1 1 1 1 2 2 3 4
0 0 0 0 0 0 0 0 0 0 0 0 0 0 1 0 1 1 0 1 1 1 2 1 1 2 2 0 1 1 1 1